Time,TemperatureF,DewpointF,PressureIn,WindDirection,WindDirectionDegrees,WindSpeedMPH,WindSpeedGustMPH,Humidity,HourlyPrecipIn,Conditions,Clouds,dailyrainin,SolarRadiationWatts/m^2,SoftwareType,DateUTC
2013-05-02 00:00:00,42.4,39.2,30.61,NW,313,0.0,1.0,88,0.00,,,0.00,0.0,meteohub,2013-05-02 07:00:00,
2013-05-02 00:05:00,42.3,39.0,30.61,NW,313,0.0,1.0,88,0.00,,,0.00,0.0,meteohub,2013-05-02 07:05:00,
2013-05-02 00:10:00,42.3,39.0,30.61,NW,313,0.0,1.0,88,0.00,,,0.00,0.0,meteohub,2013-05-02 07:10:00,
2013-05-02 00:15:00,42.3,39.0,30.61,NW,313,0.0,1.0,88,0.00,,,0.00,0.0,meteohub,2013-05-02 07:15:00,
2013-05-02 00:20:00,42.1,39.0,30.61,NW,313,2.0,2.0,89,0.00,,,0.00,0.0,meteohub,2013-05-02 07:20:00,
2013-05-02 00:25:00,41.9,38.8,30.61,NW,313,4.0,4.0,89,0.00,,,0.00,0.0,meteohub,2013-05-02 07:25:00,
2013-05-02 00:30:00,41.7,39.0,30.61,NW,313,0.0,5.0,90,0.00,,,0.00,0.0,meteohub,2013-05-02 07:30:00,
2013-05-02 00:35:00,41.5,38.8,30.61,NW,313,2.0,5.0,90,0.00,,,0.00,0.0,meteohub,2013-05-02 07:35:00,
2013-05-02 00:41:00,41.5,39.2,30.61,NW,313,0.0,5.0,91,0.00,,,0.00,0.0,meteohub,2013-05-02 07:41:00,
2013-05-02 00:46:00,41.5,39.2,30.61,NW,313,2.0,2.0,91,0.00,,,0.00,0.0,meteohub,2013-05-02 07:46:00,
2013-05-02 00:51:00,41.5,39.2,30.61,NW,313,0.0,3.0,91,0.00,,,0.00,0.0,meteohub,2013-05-02 07:51:00,
2013-05-02 00:56:00,41.5,39.2,30.61,NW,313,0.0,3.0,91,0.00,,,0.00,0.0,meteohub,2013-05-02 07:56:00,
2013-05-02 01:01:00,41.4,39.0,30.61,NW,313,0.0,3.0,91,0.00,,,0.00,0.0,meteohub,2013-05-02 08:01:00,
2013-05-02 01:06:00,41.4,39.0,30.61,NW,313,0.0,2.0,91,0.00,,,0.00,0.0,meteohub,2013-05-02 08:06:00,
2013-05-02 01:11:00,41.4,39.0,30.61,NW,313,0.0,2.0,91,0.00,,,0.00,0.0,meteohub,2013-05-02 08:11:00,
2013-05-02 01:16:00,41.4,39.2,30.61,NW,313,1.0,2.0,92,0.00,,,0.00,0.0,meteohub,2013-05-02 08:16:00,
2013-05-02 01:21:00,41.2,39.0,30.61,NW,313,2.0,2.0,92,0.00,,,0.00,0.0,meteohub,2013-05-02 08:21:00,
2013-05-02 01:26:00,41.2,39.0,30.61,NW,313,2.0,3.0,92,0.00,,,0.00,0.0,meteohub,2013-05-02 08:26:00,
2013-05-02 01:31:00,41.2,39.0,30.61,NW,313,0.0,3.0,92,0.00,,,0.00,0.0,meteohub,2013-05-02 08:31:00,
2013-05-02 01:36:00,41.2,39.0,30.61,NW,313,0.0,3.0,92,0.00,,,0.00,0.0,meteohub,2013-05-02 08:36:00,
2013-05-02 01:41:00,41.2,39.0,30.61,NW,313,1.0,2.0,92,0.00,,,0.00,0.0,meteohub,2013-05-02 08:41:00,
2013-05-02 01:46:00,41.2,39.0,30.61,NW,313,2.0,2.0,92,0.00,,,0.00,0.0,meteohub,2013-05-02 08:46:00,
2013-05-02 01:51:00,40.8,38.7,30.61,NW,313,2.0,3.0,92,0.00,,,0.00,0.0,meteohub,2013-05-02 08:51:00,
2013-05-02 01:56:00,40.8,38.7,30.61,NW,313,0.0,3.0,92,0.00,,,0.00,0.0,meteohub,2013-05-02 08:56:00,
2013-05-02 02:01:00,40.8,38.7,30.61,NW,313,0.0,3.0,92,0.00,,,0.00,0.0,meteohub,2013-05-02 09:01:00,
2013-05-02 02:06:00,40.8,38.7,30.61,NW,313,0.0,3.0,92,0.00,,,0.00,0.0,meteohub,2013-05-02 09:06:00,
2013-05-02 02:11:00,40.8,38.7,30.61,NW,313,0.0,2.0,92,0.00,,,0.00,0.0,meteohub,2013-05-02 09:11:00,
2013-05-02 02:16:00,40.8,38.7,30.60,NW,313,1.0,2.0,92,0.00,,,0.00,0.0,meteohub,2013-05-02 09:16:00,
2013-05-02 02:21:00,40.6,38.5,30.60,WNW,289,2.0,3.0,92,0.00,,,0.00,0.0,meteohub,2013-05-02 09:21:00,
2013-05-02 02:26:00,40.6,38.5,30.60,WNW,289,0.0,4.0,92,0.00,,,0.00,0.0,meteohub,2013-05-02 09:26:00,
2013-05-02 02:31:00,40.6,38.8,30.60,WNW,289,0.0,4.0,93,0.00,,,0.00,0.0,meteohub,2013-05-02 09:31:00,
2013-05-02 02:36:00,40.6,38.8,30.60,WNW,289,0.0,4.0,93,0.00,,,0.00,0.0,meteohub,2013-05-02 09:36:00,
2013-05-02 02:41:00,40.6,38.8,30.60,WNW,289,0.0,1.0,93,0.00,,,0.00,0.0,meteohub,2013-05-02 09:41:00,
2013-05-02 02:46:00,40.6,38.8,30.60,WNW,289,0.0,1.0,93,0.00,,,0.00,0.0,meteohub,2013-05-02 09:46:00,
2013-05-02 02:51:00,40.6,38.8,30.60,WNW,289,2.0,2.0,93,0.00,,,0.00,0.0,meteohub,2013-05-02 09:51:00,
2013-05-02 02:56:00,40.6,38.8,30.60,WNW,289,2.0,2.0,93,0.00,,,0.00,0.0,meteohub,2013-05-02 09:56:00,
2013-05-02 03:01:00,40.6,38.8,30.60,WNW,289,0.0,3.0,93,0.00,,,0.00,0.0,meteohub,2013-05-02 10:01:00,
2013-05-02 03:06:00,40.5,38.7,30.59,WNW,289,0.0,3.0,93,0.00,,,0.00,0.0,meteohub,2013-05-02 10:06:00,
2013-05-02 03:11:00,40.5,38.7,30.59,WNW,289,0.0,3.0,93,0.00,,,0.00,0.0,meteohub,2013-05-02 10:11:00,
2013-05-02 03:16:00,40.5,38.7,30.59,WNW,289,0.0,1.0,93,0.00,,,0.00,0.0,meteohub,2013-05-02 10:16:00,
2013-05-02 03:21:00,40.5,38.7,30.59,WNW,289,1.0,0.0,93,0.00,,,0.00,0.0,meteohub,2013-05-02 10:21:00,
2013-05-02 03:26:00,40.5,38.7,30.59,WNW,289,1.0,1.0,93,0.00,,,0.00,0.0,meteohub,2013-05-02 10:26:00,
2013-05-02 03:32:00,40.5,38.7,30.59,WNW,289,0.0,1.0,93,0.00,,,0.00,0.0,meteohub,2013-05-02 10:32:00,
2013-05-02 03:37:00,40.5,38.7,30.59,WNW,289,1.0,1.0,93,0.00,,,0.00,0.0,meteohub,2013-05-02 10:37:00,
2013-05-02 03:42:00,40.5,38.7,30.59,WNW,289,0.0,2.0,93,0.00,,,0.00,0.0,meteohub,2013-05-02 10:42:00,
2013-05-02 03:47:00,40.3,38.5,30.59,WNW,289,0.0,2.0,93,0.00,,,0.00,0.0,meteohub,2013-05-02 10:47:00,
2013-05-02 03:52:00,40.3,38.5,30.59,WNW,289,0.0,2.0,93,0.00,,,0.00,0.0,meteohub,2013-05-02 10:52:00,
2013-05-02 03:57:00,40.3,38.5,30.59,WNW,289,0.0,2.0,93,0.00,,,0.00,0.0,meteohub,2013-05-02 10:57:00,
2013-05-02 04:02:00,40.3,38.5,30.59,WNW,289,1.0,2.0,93,0.00,,,0.00,0.0,meteohub,2013-05-02 11:02:00,
2013-05-02 04:07:00,40.1,38.3,30.58,WNW,289,1.0,2.0,93,0.00,,,0.00,0.0,meteohub,2013-05-02 11:07:00,
2013-05-02 04:12:00,39.9,38.1,30.58,WNW,289,0.0,3.0,93,0.00,,,0.00,0.0,meteohub,2013-05-02 11:12:00,
2013-05-02 04:17:00,39.7,37.9,30.58,WNW,289,0.0,3.0,93,0.00,,,0.00,0.0,meteohub,2013-05-02 11:17:00,
2013-05-02 04:22:00,39.6,37.8,30.58,WNW,289,0.0,3.0,93,0.00,,,0.00,0.0,meteohub,2013-05-02 11:22:00,
2013-05-02 04:27:00,39.6,37.8,30.58,WNW,289,1.0,3.0,93,0.00,,,0.00,0.0,meteohub,2013-05-02 11:27:00,
2013-05-02 04:32:00,39.6,37.8,30.58,WNW,289,1.0,2.0,93,0.00,,,0.00,0.0,meteohub,2013-05-02 11:32:00,
2013-05-02 04:37:00,39.4,37.6,30.57,WNW,289,2.0,3.0,93,0.00,,,0.00,0.0,meteohub,2013-05-02 11:37:00,
2013-05-02 04:42:00,39.4,37.6,30.57,WNW,289,0.0,3.0,93,0.00,,,0.00,0.0,meteohub,2013-05-02 11:42:00,
2013-05-02 04:47:00,39.2,37.4,30.57,WNW,289,0.0,2.0,93,0.00,,,0.00,0.0,meteohub,2013-05-02 11:47:00,
2013-05-02 04:52:00,39.0,37.2,30.57,WNW,289,0.0,2.0,93,0.00,,,0.00,0.0,meteohub,2013-05-02 11:52:00,
2013-05-02 04:57:00,38.8,37.0,30.56,WNW,289,0.0,2.0,93,0.00,,,0.00,0.0,meteohub,2013-05-02 11:57:00,
2013-05-02 05:02:00,38.8,37.0,30.57,WNW,289,1.0,3.0,93,0.00,,,0.00,0.0,meteohub,2013-05-02 12:02:00,
2013-05-02 05:07:00,38.7,36.9,30.56,WNW,289,0.0,3.0,93,0.00,,,0.00,0.0,meteohub,2013-05-02 12:07:00,
2013-05-02 05:12:00,38.7,37.0,30.56,WNW,289,0.0,3.0,94,0.00,,,0.00,0.0,meteohub,2013-05-02 12:12:00,
2013-05-02 05:17:00,38.7,37.0,30.56,WNW,289,0.0,2.0,94,0.00,,,0.00,0.0,meteohub,2013-05-02 12:17:00,
2013-05-02 05:22:00,38.5,36.9,30.56,WNW,289,0.0,3.0,94,0.00,,,0.00,0.0,meteohub,2013-05-02 12:22:00,
2013-05-02 05:27:00,38.5,36.9,30.57,WNW,289,0.0,3.0,94,0.00,,,0.00,0.0,meteohub,2013-05-02 12:27:00,
2013-05-02 05:32:00,38.3,36.7,30.57,WNW,289,0.0,3.0,94,0.00,,,0.00,0.0,meteohub,2013-05-02 12:32:00,
2013-05-02 05:37:00,38.3,36.7,30.57,WNW,289,0.0,2.0,94,0.00,,,0.00,0.0,meteohub,2013-05-02 12:37:00,
2013-05-02 05:42:00,38.1,36.5,30.57,WNW,289,2.0,2.0,94,0.00,,,0.00,0.0,meteohub,2013-05-02 12:42:00,
2013-05-02 05:47:00,38.1,36.5,30.57,WNW,289,0.0,2.0,94,0.00,,,0.00,0.0,meteohub,2013-05-02 12:47:00,
2013-05-02 05:52:00,37.9,36.3,30.57,WNW,289,1.0,2.0,94,0.00,,,0.00,0.0,meteohub,2013-05-02 12:52:00,
2013-05-02 05:57:00,37.9,36.3,30.57,WNW,289,2.0,3.0,94,0.00,,,0.00,0.0,meteohub,2013-05-02 12:57:00,
2013-05-02 06:02:00,37.9,36.3,30.58,WNW,289,0.0,3.0,94,0.00,,,0.00,5.0,meteohub,2013-05-02 13:02:00,
2013-05-02 06:07:00,37.9,36.3,30.58,WNW,289,0.0,3.0,94,0.00,,,0.00,7.0,meteohub,2013-05-02 13:07:00,
2013-05-02 06:12:00,37.9,36.3,30.58,WNW,289,0.0,2.0,94,0.00,,,0.00,9.0,meteohub,2013-05-02 13:12:00,
2013-05-02 06:17:00,37.8,36.1,30.59,WNW,289,0.0,2.0,94,0.00,,,0.00,12.0,meteohub,2013-05-02 13:17:00,
2013-05-02 06:22:00,37.8,36.1,30.58,WNW,289,0.0,2.0,94,0.00,,,0.00,14.0,meteohub,2013-05-02 13:22:00,
2013-05-02 06:27:00,37.6,36.0,30.58,WNW,289,0.0,2.0,94,0.00,,,0.00,16.0,meteohub,2013-05-02 13:27:00,
2013-05-02 06:32:00,37.6,36.0,30.58,WNW,292,3.0,4.0,94,0.00,,,0.00,18.0,meteohub,2013-05-02 13:32:00,
2013-05-02 06:37:00,37.6,36.0,30.57,WSW,240,1.0,4.0,94,0.00,,,0.00,21.0,meteohub,2013-05-02 13:37:00,
2013-05-02 06:42:00,37.6,36.3,30.56,WNW,293,3.0,9.0,95,0.00,,,0.00,25.0,meteohub,2013-05-02 13:42:00,
2013-05-02 06:47:00,37.9,36.7,30.56,West,277,4.0,9.0,95,0.00,,,0.00,26.0,meteohub,2013-05-02 13:47:00,
2013-05-02 06:52:00,37.9,36.7,30.56,West,278,0.0,9.0,95,0.00,,,0.00,30.0,meteohub,2013-05-02 13:52:00,
2013-05-02 06:57:00,37.9,36.7,30.56,West,278,2.0,6.0,95,0.00,,,0.00,35.0,meteohub,2013-05-02 13:57:00,
2013-05-02 07:02:00,37.9,36.7,30.56,West,277,3.0,5.0,95,0.00,,,0.00,35.0,meteohub,2013-05-02 14:02:00,
2013-05-02 07:07:00,37.8,36.5,30.56,West,279,2.0,5.0,95,0.00,,,0.00,35.0,meteohub,2013-05-02 14:07:00,
2013-05-02 07:12:00,37.8,36.5,30.56,West,279,0.0,5.0,95,0.00,,,0.00,33.0,meteohub,2013-05-02 14:12:00,
2013-05-02 07:17:00,37.8,36.5,30.56,West,279,2.0,5.0,95,0.00,,,0.00,32.0,meteohub,2013-05-02 14:17:00,
2013-05-02 07:22:00,37.8,36.5,30.55,West,279,1.0,4.0,95,0.00,,,0.00,33.0,meteohub,2013-05-02 14:22:00,
2013-05-02 07:27:00,37.9,36.7,30.55,West,279,0.0,4.0,95,0.00,,,0.00,35.0,meteohub,2013-05-02 14:27:00,
2013-05-02 07:32:00,37.9,36.7,30.56,West,279,0.0,4.0,95,0.00,,,0.00,39.0,meteohub,2013-05-02 14:32:00,
2013-05-02 07:37:00,37.9,36.7,30.56,West,279,0.0,4.0,95,0.00,,,0.00,40.0,meteohub,2013-05-02 14:37:00,
2013-05-02 07:42:00,37.9,36.7,30.55,West,279,0.0,2.0,95,0.00,,,0.00,42.0,meteohub,2013-05-02 14:42:00,
2013-05-02 07:47:00,38.1,36.9,30.55,West,279,0.0,2.0,95,0.00,,,0.00,42.0,meteohub,2013-05-02 14:47:00,
2013-05-02 07:52:00,38.3,37.0,30.55,West,279,0.0,2.0,95,0.00,,,0.00,46.0,meteohub,2013-05-02 14:52:00,
2013-05-02 07:57:00,38.3,37.0,30.55,West,279,0.0,2.0,95,0.00,,,0.00,49.0,meteohub,2013-05-02 14:57:00,
2013-05-02 08:02:00,38.5,37.2,30.55,West,279,1.0,2.0,95,0.00,,,0.00,51.0,meteohub,2013-05-02 15:02:00,
2013-05-02 08:07:00,38.8,37.6,30.55,West,279,0.0,2.0,95,0.00,,,0.00,51.0,meteohub,2013-05-02 15:07:00,
2013-05-02 08:12:00,38.8,37.6,30.55,West,279,0.0,2.0,95,0.00,,,0.00,49.0,meteohub,2013-05-02 15:12:00,
2013-05-02 08:17:00,39.0,37.8,30.54,West,279,2.0,2.0,95,0.00,,,0.00,49.0,meteohub,2013-05-02 15:17:00,
2013-05-02 08:22:00,39.6,38.3,30.54,West,279,0.0,2.0,95,0.00,,,0.00,53.0,meteohub,2013-05-02 15:22:00,
2013-05-02 08:27:00,41.2,39.6,30.54,SE,130,1.0,4.0,94,0.00,,,0.00,236.0,meteohub,2013-05-02 15:27:00,
2013-05-02 08:33:00,43.3,39.7,30.54,SE,134,0.0,8.0,87,0.00,,,0.00,369.0,meteohub,2013-05-02 15:33:00,
2013-05-02 08:38:00,45.1,39.9,30.53,SE,134,0.0,8.0,82,0.00,,,0.00,390.0,meteohub,2013-05-02 15:38:00,
2013-05-02 08:43:00,47.5,41.9,30.53,SE,134,2.0,3.0,81,0.00,,,0.00,397.0,meteohub,2013-05-02 15:43:00,
2013-05-02 08:48:00,48.2,40.6,30.53,SE,134,0.0,3.0,75,0.00,,,0.00,410.0,meteohub,2013-05-02 15:48:00,
2013-05-02 08:53:00,49.3,40.3,30.53,WNW,298,3.0,3.0,71,0.00,,,0.00,448.0,meteohub,2013-05-02 15:53:00,
2013-05-02 08:58:00,50.7,42.1,30.52,WNW,298,2.0,6.0,72,0.00,,,0.00,468.0,meteohub,2013-05-02 15:58:00,
2013-05-02 09:03:00,51.4,40.5,30.52,WNW,298,0.0,6.0,66,0.00,,,0.00,485.0,meteohub,2013-05-02 16:03:00,
2013-05-02 09:08:00,52.5,40.3,30.52,WNW,288,2.0,4.0,63,0.00,,,0.00,501.0,meteohub,2013-05-02 16:08:00,
2013-05-02 09:13:00,52.9,40.6,30.52,WNW,288,1.0,4.0,63,0.00,,,0.00,508.0,meteohub,2013-05-02 16:13:00,
2013-05-02 09:18:00,53.6,40.5,30.51,WNW,288,0.0,4.0,61,0.00,,,0.00,496.0,meteohub,2013-05-02 16:18:00,
2013-05-02 09:23:00,54.0,40.8,30.51,WNW,290,1.0,3.0,61,0.00,,,0.00,526.0,meteohub,2013-05-02 16:23:00,
2013-05-02 09:28:00,53.8,42.3,30.51,WNW,290,1.0,3.0,65,0.00,,,0.00,526.0,meteohub,2013-05-02 16:28:00,
2013-05-02 09:33:00,54.7,40.6,30.51,WNW,296,2.0,3.0,59,0.00,,,0.00,550.0,meteohub,2013-05-02 16:33:00,
2013-05-02 09:38:00,54.1,41.0,30.50,WSW,253,1.0,3.0,61,0.00,,,0.00,568.0,meteohub,2013-05-02 16:38:00,
2013-05-02 09:43:00,53.4,40.6,30.50,WSW,253,0.0,4.0,62,0.00,,,0.00,578.0,meteohub,2013-05-02 16:43:00,
2013-05-02 09:48:00,54.1,39.7,30.50,WSW,253,0.0,4.0,58,0.00,,,0.00,596.0,meteohub,2013-05-02 16:48:00,
2013-05-02 09:53:00,55.4,40.5,30.49,WSW,253,0.0,4.0,57,0.00,,,0.00,615.0,meteohub,2013-05-02 16:53:00,
2013-05-02 09:58:00,55.8,42.1,30.49,WSW,253,0.0,2.0,60,0.00,,,0.00,594.0,meteohub,2013-05-02 16:58:00,
2013-05-02 10:03:00,55.8,39.9,30.48,ESE,120,1.0,2.0,55,0.00,,,0.00,636.0,meteohub,2013-05-02 17:03:00,
2013-05-02 10:08:00,57.2,38.7,30.48,WNW,291,0.0,3.0,50,0.00,,,0.00,649.0,meteohub,2013-05-02 17:08:00,
2013-05-02 10:13:00,56.8,39.9,30.48,WNW,291,2.0,3.0,53,0.00,,,0.00,661.0,meteohub,2013-05-02 17:13:00,
2013-05-02 10:18:00,56.7,39.2,30.48,South,170,3.0,3.0,52,0.00,,,0.00,675.0,meteohub,2013-05-02 17:18:00,
2013-05-02 10:23:00,58.5,39.4,30.48,North,355,1.0,4.0,49,0.00,,,0.00,687.0,meteohub,2013-05-02 17:23:00,
2013-05-02 10:28:00,59.5,40.3,30.47,WNW,298,0.0,4.0,49,0.00,,,0.00,696.0,meteohub,2013-05-02 17:28:00,
2013-05-02 10:33:00,60.4,38.5,30.47,WNW,299,0.0,4.0,44,0.00,,,0.00,691.0,meteohub,2013-05-02 17:33:00,
2013-05-02 10:38:00,60.3,39.9,30.47,SW,221,2.0,4.0,47,0.00,,,0.00,715.0,meteohub,2013-05-02 17:38:00,
2013-05-02 10:43:00,60.1,39.7,30.46,ESE,117,1.0,3.0,47,0.00,,,0.00,717.0,meteohub,2013-05-02 17:43:00,
2013-05-02 10:48:00,60.1,38.7,30.46,SE,134,1.0,3.0,45,0.00,,,0.00,724.0,meteohub,2013-05-02 17:48:00,
2013-05-02 10:53:00,59.5,37.0,30.46,SE,134,2.0,4.0,43,0.00,,,0.00,701.0,meteohub,2013-05-02 17:53:00,
2013-05-02 10:58:00,59.9,37.9,30.45,SSW,193,2.0,4.0,44,0.00,,,0.00,752.0,meteohub,2013-05-02 17:58:00,
2013-05-02 11:03:00,60.1,40.3,30.45,SSW,192,1.0,5.0,48,0.00,,,0.00,758.0,meteohub,2013-05-02 18:03:00,
2013-05-02 11:08:00,60.6,40.8,30.45,South,190,1.0,6.0,48,0.00,,,0.00,765.0,meteohub,2013-05-02 18:08:00,
2013-05-02 11:13:00,61.0,36.5,30.45,South,190,1.0,6.0,40,0.00,,,0.00,775.0,meteohub,2013-05-02 18:13:00,
2013-05-02 11:19:00,62.1,37.4,30.44,South,190,1.0,6.0,40,0.00,,,0.00,775.0,meteohub,2013-05-02 18:19:00,
2013-05-02 11:24:00,62.2,37.6,30.44,South,190,0.0,3.0,40,0.00,,,0.00,789.0,meteohub,2013-05-02 18:24:00,
2013-05-02 11:29:00,62.8,36.9,30.43,South,190,1.0,3.0,38,0.00,,,0.00,798.0,meteohub,2013-05-02 18:29:00,
2013-05-02 11:34:00,63.1,40.3,30.43,South,190,1.0,3.0,43,0.00,,,0.00,803.0,meteohub,2013-05-02 18:34:00,
2013-05-02 11:39:00,63.7,40.1,30.43,South,190,0.0,3.0,42,0.00,,,0.00,810.0,meteohub,2013-05-02 18:39:00,
2013-05-02 11:44:00,63.9,37.8,30.42,South,190,1.0,2.0,38,0.00,,,0.00,819.0,meteohub,2013-05-02 18:44:00,
2013-05-02 11:49:00,64.2,39.4,30.42,South,190,0.0,2.0,40,0.00,,,0.00,786.0,meteohub,2013-05-02 18:49:00,
2013-05-02 11:54:00,64.6,34.9,30.42,South,190,3.0,3.0,33,0.00,,,0.00,831.0,meteohub,2013-05-02 18:54:00,
2013-05-02 11:59:00,65.1,41.5,30.42,South,190,2.0,2.0,42,0.00,,,0.00,835.0,meteohub,2013-05-02 18:59:00,
2013-05-02 12:04:00,65.8,40.1,30.41,South,190,1.0,3.0,39,0.00,,,0.00,838.0,meteohub,2013-05-02 19:04:00,
2013-05-02 12:09:00,66.0,36.1,30.41,South,190,0.0,3.0,33,0.00,,,0.00,842.0,meteohub,2013-05-02 19:09:00,
2013-05-02 12:14:00,66.7,33.4,30.41,SW,219,1.0,3.0,29,0.00,,,0.00,846.0,meteohub,2013-05-02 19:14:00,
2013-05-02 12:19:00,67.8,35.2,30.41,SW,217,0.0,5.0,30,0.00,,,0.00,849.0,meteohub,2013-05-02 19:19:00,
2013-05-02 12:24:00,68.4,34.9,30.40,SW,217,0.0,5.0,29,0.00,,,0.00,835.0,meteohub,2013-05-02 19:24:00,
2013-05-02 12:29:00,69.4,32.0,30.40,West,272,4.0,4.0,25,0.00,,,0.00,879.0,meteohub,2013-05-02 19:29:00,
2013-05-02 12:34:00,71.1,31.5,30.40,West,280,0.0,3.0,23,0.00,,,0.00,847.0,meteohub,2013-05-02 19:34:00,
2013-05-02 12:39:00,70.9,32.4,30.39,West,275,4.0,6.0,24,0.00,,,0.00,770.0,meteohub,2013-05-02 19:39:00,
2013-05-02 12:44:00,72.0,29.8,30.39,WNW,298,2.0,6.0,21,0.00,,,0.00,958.0,meteohub,2013-05-02 19:44:00,
2013-05-02 12:49:00,71.8,36.0,30.39,SW,235,2.0,6.0,27,0.00,,,0.00,884.0,meteohub,2013-05-02 19:49:00,
2013-05-02 12:54:00,72.1,31.1,30.39,SW,225,4.0,6.0,22,0.00,,,0.00,916.0,meteohub,2013-05-02 19:54:00,
2013-05-02 12:59:00,70.9,32.4,30.38,SSW,212,2.0,7.0,24,0.00,,,0.00,577.0,meteohub,2013-05-02 19:59:00,
2013-05-02 13:04:00,71.2,30.4,30.38,SW,221,2.0,7.0,22,0.00,,,0.00,846.0,meteohub,2013-05-02 20:04:00,
2013-05-02 13:09:00,72.3,30.2,30.38,WNW,295,4.0,7.0,21,0.00,,,0.00,879.0,meteohub,2013-05-02 20:09:00,
2013-05-02 13:14:00,73.0,29.7,30.38,NNW,336,4.0,6.0,20,0.00,,,0.00,912.0,meteohub,2013-05-02 20:14:00,
2013-05-02 13:19:00,73.2,27.1,30.38,NE,53,4.0,7.0,18,0.00,,,0.00,928.0,meteohub,2013-05-02 20:19:00,
2013-05-02 13:24:00,73.2,28.4,30.37,SW,236,5.0,7.0,19,0.00,,,0.00,657.0,meteohub,2013-05-02 20:24:00,
2013-05-02 13:29:00,73.9,26.4,30.38,West,270,3.0,9.0,17,0.00,,,0.00,965.0,meteohub,2013-05-02 20:29:00,
2013-05-02 13:34:00,74.7,25.5,30.37,SW,229,3.0,9.0,16,0.00,,,0.00,536.0,meteohub,2013-05-02 20:34:00,
2013-05-02 13:40:00,74.7,23.9,30.37,WSW,244,2.0,10.0,15,0.00,,,0.00,601.0,meteohub,2013-05-02 20:40:00,
2013-05-02 13:45:00,74.7,25.5,30.37,WSW,254,5.0,15.0,16,0.00,,,0.00,749.0,meteohub,2013-05-02 20:45:00,
2013-05-02 13:50:00,74.5,26.8,30.37,WSW,250,4.0,15.0,17,0.00,,,0.00,640.0,meteohub,2013-05-02 20:50:00,
2013-05-02 13:55:00,74.1,27.9,30.37,WNW,288,5.0,15.0,18,0.00,,,0.00,842.0,meteohub,2013-05-02 20:55:00,
2013-05-02 14:00:00,74.5,25.3,30.37,WNW,295,9.0,12.0,16,0.00,,,0.00,939.0,meteohub,2013-05-02 21:00:00,
2013-05-02 14:05:00,74.7,27.0,30.37,WNW,290,10.0,14.0,17,0.00,,,0.00,670.0,meteohub,2013-05-02 21:05:00,
2013-05-02 14:10:00,74.7,23.9,30.37,WNW,290,3.0,16.0,15,0.00,,,0.00,619.0,meteohub,2013-05-02 21:10:00,
2013-05-02 14:15:00,73.9,23.4,30.37,SW,225,8.0,16.0,15,0.00,,,0.00,733.0,meteohub,2013-05-02 21:15:00,
2013-05-02 14:20:00,74.1,27.9,30.36,WNW,285,4.0,15.0,18,0.00,,,0.00,788.0,meteohub,2013-05-02 21:20:00,
2013-05-02 14:25:00,73.9,26.4,30.36,WSW,246,5.0,18.0,17,0.00,,,0.00,773.0,meteohub,2013-05-02 21:25:00,
2013-05-02 14:30:00,74.1,26.6,30.36,WSW,245,13.0,18.0,17,0.00,,,0.00,619.0,meteohub,2013-05-02 21:30:00,
2013-05-02 14:35:00,73.9,29.1,30.36,SW,236,6.0,18.0,19,0.00,,,0.00,434.0,meteohub,2013-05-02 21:35:00,
2013-05-02 14:40:00,73.8,27.7,30.36,NW,319,6.0,14.0,18,0.00,,,0.00,371.0,meteohub,2013-05-02 21:40:00,
2013-05-02 14:45:00,73.6,28.8,30.35,WSW,255,1.0,14.0,19,0.00,,,0.00,383.0,meteohub,2013-05-02 21:45:00,
2013-05-02 14:50:00,73.8,28.9,30.36,WSW,257,4.0,11.0,19,0.00,,,0.00,367.0,meteohub,2013-05-02 21:50:00,
2013-05-02 14:55:00,73.8,31.5,30.35,SW,232,6.0,11.0,21,0.00,,,0.00,392.0,meteohub,2013-05-02 21:55:00,
2013-05-02 15:00:00,73.2,30.9,30.35,WSW,250,5.0,10.0,21,0.00,,,0.00,390.0,meteohub,2013-05-02 22:00:00,
2013-05-02 15:05:00,73.2,33.3,30.35,West,261,3.0,10.0,23,0.00,,,0.00,388.0,meteohub,2013-05-02 22:05:00,
2013-05-02 15:10:00,73.2,32.2,30.35,West,281,5.0,11.0,22,0.00,,,0.00,381.0,meteohub,2013-05-02 22:10:00,
2013-05-02 15:15:00,73.2,33.3,30.35,West,273,5.0,11.0,23,0.00,,,0.00,352.0,meteohub,2013-05-02 22:15:00,
2013-05-02 15:20:00,73.2,34.3,30.35,WNW,282,9.0,11.0,24,0.00,,,0.00,330.0,meteohub,2013-05-02 22:20:00,
2013-05-02 15:25:00,73.2,35.2,30.35,WSW,248,5.0,12.0,25,0.00,,,0.00,292.0,meteohub,2013-05-02 22:25:00,
2013-05-02 15:30:00,72.9,32.9,30.35,WNW,286,5.0,12.0,23,0.00,,,0.00,295.0,meteohub,2013-05-02 22:30:00,
2013-05-02 15:35:00,72.7,32.7,30.35,WNW,283,2.0,12.0,23,0.00,,,0.00,346.0,meteohub,2013-05-02 22:35:00,
2013-05-02 15:40:00,72.9,34.0,30.35,West,275,5.0,10.0,24,0.00,,,0.00,371.0,meteohub,2013-05-02 22:40:00,
2013-05-02 15:45:00,72.7,32.7,30.34,West,281,4.0,11.0,23,0.00,,,0.00,371.0,meteohub,2013-05-02 22:45:00,
2013-05-02 15:50:00,72.7,34.9,30.34,West,268,4.0,11.0,25,0.00,,,0.00,360.0,meteohub,2013-05-02 22:50:00,
2013-05-02 15:55:00,72.7,34.9,30.34,West,278,8.0,11.0,25,0.00,,,0.00,348.0,meteohub,2013-05-02 22:55:00,
2013-05-02 16:00:00,72.5,35.6,30.34,WNW,290,4.0,10.0,26,0.00,,,0.00,346.0,meteohub,2013-05-02 23:00:00,
2013-05-02 16:05:00,72.5,34.7,30.34,West,276,4.0,10.0,25,0.00,,,0.00,362.0,meteohub,2013-05-02 23:05:00,
2013-05-02 16:10:00,72.3,36.5,30.34,West,277,3.0,11.0,27,0.00,,,0.00,360.0,meteohub,2013-05-02 23:10:00,
2013-05-02 16:15:00,72.1,35.4,30.34,West,281,4.0,12.0,26,0.00,,,0.00,350.0,meteohub,2013-05-02 23:15:00,
2013-05-02 16:20:00,72.0,34.2,30.34,NW,317,10.0,13.0,25,0.00,,,0.00,352.0,meteohub,2013-05-02 23:20:00,
2013-05-02 16:25:00,72.0,35.2,30.34,West,275,4.0,14.0,26,0.00,,,0.00,360.0,meteohub,2013-05-02 23:25:00,
2013-05-02 16:31:00,71.8,35.1,30.34,SW,234,2.0,14.0,26,0.00,,,0.00,348.0,meteohub,2013-05-02 23:31:00,
2013-05-02 16:36:00,71.4,34.7,30.34,NW,326,10.0,14.0,26,0.00,,,0.00,345.0,meteohub,2013-05-02 23:36:00,
2013-05-02 16:41:00,71.2,36.5,30.34,NW,315,12.0,16.0,28,0.00,,,0.00,334.0,meteohub,2013-05-02 23:41:00,
2013-05-02 16:46:00,70.9,36.1,30.34,West,276,5.0,16.0,28,0.00,,,0.00,320.0,meteohub,2013-05-02 23:46:00,
2013-05-02 16:51:00,70.9,36.1,30.34,WNW,282,2.0,15.0,28,0.00,,,0.00,313.0,meteohub,2013-05-02 23:51:00,
2013-05-02 16:56:00,70.5,35.8,30.34,NW,304,13.0,15.0,28,0.00,,,0.00,316.0,meteohub,2013-05-02 23:56:00,
2013-05-02 17:01:00,70.3,35.6,30.34,NNW,329,4.0,18.0,28,0.00,,,0.00,320.0,meteohub,2013-05-03 00:01:00,
2013-05-02 17:06:00,70.3,34.7,30.34,NW,308,7.0,18.0,27,0.00,,,0.00,301.0,meteohub,2013-05-03 00:06:00,
2013-05-02 17:11:00,70.2,34.7,30.34,WNW,301,6.0,18.0,27,0.00,,,0.00,257.0,meteohub,2013-05-03 00:11:00,
2013-05-02 17:16:00,70.0,35.4,30.33,WNW,283,10.0,12.0,28,0.00,,,0.00,230.0,meteohub,2013-05-03 00:16:00,
2013-05-02 17:21:00,69.8,36.1,30.33,West,277,6.0,12.0,29,0.00,,,0.00,229.0,meteohub,2013-05-03 00:21:00,
2013-05-02 17:26:00,69.6,36.0,30.33,West,272,3.0,12.0,29,0.00,,,0.00,236.0,meteohub,2013-05-03 00:26:00,
2013-05-02 17:31:00,69.6,36.0,30.33,West,275,3.0,11.0,29,0.00,,,0.00,225.0,meteohub,2013-05-03 00:31:00,
2013-05-02 17:36:00,69.3,36.5,30.34,WNW,300,7.0,11.0,30,0.00,,,0.00,204.0,meteohub,2013-05-03 00:36:00,
2013-05-02 17:41:00,68.9,37.0,30.33,NW,323,7.0,13.0,31,0.00,,,0.00,179.0,meteohub,2013-05-03 00:41:00,
2013-05-02 17:46:00,68.5,37.6,30.33,WNW,284,11.0,13.0,32,0.00,,,0.00,169.0,meteohub,2013-05-03 00:46:00,
2013-05-02 17:51:00,68.4,37.4,30.33,WNW,300,5.0,14.0,32,0.00,,,0.00,163.0,meteohub,2013-05-03 00:51:00,
2013-05-02 17:56:00,68.2,37.9,30.33,West,279,1.0,14.0,33,0.00,,,0.00,160.0,meteohub,2013-05-03 00:56:00,
2013-05-02 18:01:00,68.2,38.7,30.33,WNW,289,4.0,14.0,34,0.00,,,0.00,149.0,meteohub,2013-05-03 01:01:00,
2013-05-02 18:06:00,67.6,39.0,30.33,NW,306,0.0,9.0,35,0.00,,,0.00,137.0,meteohub,2013-05-03 01:06:00,
2013-05-02 18:11:00,67.3,41.5,30.33,NW,325,0.0,5.0,39,0.00,,,0.00,135.0,meteohub,2013-05-03 01:11:00,
2013-05-02 18:16:00,67.1,40.6,30.34,NE,48,5.0,5.0,38,0.00,,,0.00,127.0,meteohub,2013-05-03 01:16:00,
2013-05-02 18:21:00,67.1,39.2,30.34,NNE,12,0.0,5.0,36,0.00,,,0.00,105.0,meteohub,2013-05-03 01:21:00,
2013-05-02 18:26:00,66.9,39.7,30.34,NNE,12,0.0,5.0,37,0.00,,,0.00,88.0,meteohub,2013-05-03 01:26:00,
2013-05-02 18:31:00,66.6,40.1,30.34,WSW,240,0.0,5.0,38,0.00,,,0.00,86.0,meteohub,2013-05-03 01:31:00,
2013-05-02 18:36:00,66.4,39.4,30.34,WNW,284,5.0,5.0,37,0.00,,,0.00,86.0,meteohub,2013-05-03 01:36:00,
2013-05-02 18:41:00,66.4,39.4,30.34,West,271,3.0,7.0,37,0.00,,,0.00,83.0,meteohub,2013-05-03 01:41:00,
2013-05-02 18:46:00,66.0,39.0,30.34,South,187,0.0,7.0,37,0.00,,,0.00,74.0,meteohub,2013-05-03 01:46:00,
2013-05-02 18:51:00,66.0,39.0,30.34,West,273,2.0,7.0,37,0.00,,,0.00,65.0,meteohub,2013-05-03 01:51:00,
2013-05-02 18:56:00,65.8,40.1,30.35,WNW,287,0.0,6.0,39,0.00,,,0.00,60.0,meteohub,2013-05-03 01:56:00,
2013-05-02 19:01:00,65.5,39.2,30.34,WNW,285,3.0,6.0,38,0.00,,,0.00,58.0,meteohub,2013-05-03 02:01:00,
2013-05-02 19:06:00,65.1,40.3,30.34,West,276,1.0,10.0,40,0.00,,,0.00,60.0,meteohub,2013-05-03 02:06:00,
2013-05-02 19:11:00,64.6,39.7,30.34,West,276,1.0,10.0,40,0.00,,,0.00,58.0,meteohub,2013-05-03 02:11:00,
2013-05-02 19:16:00,64.2,43.0,30.35,ESE,103,0.0,6.0,46,0.00,,,0.00,51.0,meteohub,2013-05-03 02:16:00,
2013-05-02 19:22:00,63.7,43.2,30.35,ESE,103,2.0,3.0,47,0.00,,,0.00,46.0,meteohub,2013-05-03 02:22:00,
2013-05-02 19:27:00,63.1,42.6,30.35,ENE,69,2.0,3.0,47,0.00,,,0.00,42.0,meteohub,2013-05-03 02:27:00,
2013-05-02 19:32:00,62.6,44.8,30.35,ENE,69,0.0,5.0,52,0.00,,,0.00,37.0,meteohub,2013-05-03 02:32:00,
2013-05-02 19:37:00,62.6,44.8,30.35,ENE,69,1.0,5.0,52,0.00,,,0.00,33.0,meteohub,2013-05-03 02:37:00,
2013-05-02 19:42:00,62.4,42.4,30.35,WNW,286,2.0,4.0,48,0.00,,,0.00,28.0,meteohub,2013-05-03 02:42:00,
2013-05-02 19:47:00,62.4,41.4,30.35,NW,317,3.0,3.0,46,0.00,,,0.00,19.0,meteohub,2013-05-03 02:47:00,
2013-05-02 19:52:00,62.1,43.2,30.35,NE,48,1.0,4.0,50,0.00,,,0.00,12.0,meteohub,2013-05-03 02:52:00,
2013-05-02 19:57:00,61.5,43.2,30.35,NE,48,4.0,4.0,51,0.00,,,0.00,9.0,meteohub,2013-05-03 02:57:00,
2013-05-02 20:02:00,61.3,43.5,30.35,NE,49,0.0,4.0,52,0.00,,,0.00,7.0,meteohub,2013-05-03 03:02:00,
2013-05-02 20:07:00,61.0,45.7,30.35,NE,49,1.0,4.0,57,0.00,,,0.00,5.0,meteohub,2013-05-03 03:07:00,
2013-05-02 20:12:00,60.4,44.6,30.35,NE,49,1.0,4.0,56,0.00,,,0.00,7.0,meteohub,2013-05-03 03:12:00,
2013-05-02 20:17:00,60.1,44.4,30.35,ENE,61,1.0,4.0,56,0.00,,,0.00,7.0,meteohub,2013-05-03 03:17:00,
2013-05-02 20:22:00,59.5,45.1,30.36,ENE,61,0.0,4.0,59,0.00,,,0.00,0.0,meteohub,2013-05-03 03:22:00,
2013-05-02 20:27:00,59.2,45.7,30.36,ENE,63,4.0,4.0,61,0.00,,,0.00,0.0,meteohub,2013-05-03 03:27:00,
2013-05-02 20:32:00,58.6,43.9,30.36,ENE,65,2.0,4.0,58,0.00,,,0.00,0.0,meteohub,2013-05-03 03:32:00,
2013-05-02 20:37:00,58.5,44.6,30.35,ENE,65,2.0,4.0,60,0.00,,,0.00,0.0,meteohub,2013-05-03 03:37:00,
2013-05-02 20:42:00,58.5,44.6,30.36,ENE,65,0.0,4.0,60,0.00,,,0.00,0.0,meteohub,2013-05-03 03:42:00,
2013-05-02 20:47:00,58.3,45.0,30.36,ENE,65,0.0,4.0,61,0.00,,,0.00,0.0,meteohub,2013-05-03 03:47:00,
2013-05-02 20:52:00,58.3,45.0,30.36,ENE,65,0.0,3.0,61,0.00,,,0.00,0.0,meteohub,2013-05-03 03:52:00,
2013-05-02 20:57:00,58.1,45.5,30.36,ENE,65,0.0,1.0,63,0.00,,,0.00,0.0,meteohub,2013-05-03 03:57:00,
2013-05-02 21:01:00,58.1,46.0,30.36,ENE,65,0.0,1.0,64,0.00,,,0.00,0.0,meteohub,2013-05-03 04:01:00,
2013-05-02 21:02:00,58.1,46.0,30.36,ENE,65,0.0,1.0,64,0.00,,,0.00,0.0,meteohub,2013-05-03 04:02:00,
2013-05-02 21:04:00,57.9,45.3,30.37,ENE,65,0.0,1.0,63,0.00,,,0.00,0.0,meteohub,2013-05-03 04:04:00,
2013-05-02 21:05:00,57.9,45.0,30.37,ENE,65,0.0,0.0,62,0.00,,,0.00,0.0,meteohub,2013-05-03 04:05:00,
2013-05-02 21:10:00,57.7,46.0,30.37,ENE,65,0.0,1.0,65,0.00,,,0.00,0.0,meteohub,2013-05-03 04:10:00,
2013-05-02 21:15:00,57.4,47.3,30.37,ENE,65,0.0,2.0,69,0.00,,,0.00,0.0,meteohub,2013-05-03 04:15:00,
2013-05-02 21:20:00,57.0,46.6,30.37,ENE,65,0.0,2.0,68,0.00,,,0.00,0.0,meteohub,2013-05-03 04:20:00,
2013-05-02 21:25:00,56.8,46.0,30.37,ENE,65,0.0,2.0,67,0.00,,,0.00,0.0,meteohub,2013-05-03 04:25:00,
2013-05-02 21:30:00,56.8,47.1,30.37,ENE,65,0.0,1.0,70,0.00,,,0.00,0.0,meteohub,2013-05-03 04:30:00,
2013-05-02 21:35:00,56.7,46.2,30.37,ENE,65,0.0,1.0,68,0.00,,,0.00,0.0,meteohub,2013-05-03 04:35:00,
2013-05-02 21:40:00,56.7,47.7,30.37,ENE,65,0.0,1.0,72,0.00,,,0.00,0.0,meteohub,2013-05-03 04:40:00,
2013-05-02 21:45:00,56.5,48.0,30.38,ENE,65,0.0,1.0,73,0.00,,,0.00,0.0,meteohub,2013-05-03 04:45:00,
2013-05-02 21:50:00,56.3,46.9,30.38,ENE,65,0.0,0.0,71,0.00,,,0.00,0.0,meteohub,2013-05-03 04:50:00,
2013-05-02 21:55:00,56.3,47.5,30.38,ENE,65,0.0,1.0,72,0.00,,,0.00,0.0,meteohub,2013-05-03 04:55:00,
2013-05-02 22:00:00,55.9,46.8,30.38,ENE,65,0.0,2.0,71,0.00,,,0.00,0.0,meteohub,2013-05-03 05:00:00,
2013-05-02 22:06:00,55.9,47.1,30.38,ENE,65,0.0,2.0,72,0.00,,,0.00,0.0,meteohub,2013-05-03 05:06:00,
2013-05-02 22:11:00,55.8,46.9,30.38,ENE,65,0.0,2.0,72,0.00,,,0.00,0.0,meteohub,2013-05-03 05:11:00,
2013-05-02 22:16:00,55.6,47.1,30.38,ENE,65,0.0,2.0,73,0.00,,,0.00,0.0,meteohub,2013-05-03 05:16:00,
2013-05-02 22:21:00,55.6,47.5,30.38,ENE,65,0.0,1.0,74,0.00,,,0.00,0.0,meteohub,2013-05-03 05:21:00,
2013-05-02 22:26:00,55.4,46.9,30.38,ENE,65,0.0,1.0,73,0.00,,,0.00,0.0,meteohub,2013-05-03 05:26:00,
2013-05-02 22:31:00,54.9,47.5,30.38,ENE,65,1.0,1.0,76,0.00,,,0.00,0.0,meteohub,2013-05-03 05:31:00,
2013-05-02 22:36:00,54.7,47.7,30.38,ENE,65,1.0,2.0,77,0.00,,,0.00,0.0,meteohub,2013-05-03 05:36:00,
2013-05-02 22:41:00,54.7,47.3,30.38,ENE,65,0.0,2.0,76,0.00,,,0.00,0.0,meteohub,2013-05-03 05:41:00,
2013-05-02 22:46:00,54.5,47.5,30.38,ENE,65,0.0,2.0,77,0.00,,,0.00,0.0,meteohub,2013-05-03 05:46:00,
2013-05-02 22:51:00,54.3,46.9,30.38,ENE,65,0.0,2.0,76,0.00,,,0.00,0.0,meteohub,2013-05-03 05:51:00,
2013-05-02 22:56:00,54.1,47.1,30.38,ENE,65,0.0,0.0,77,0.00,,,0.00,0.0,meteohub,2013-05-03 05:56:00,
2013-05-02 23:01:00,54.1,47.1,30.38,ENE,65,0.0,0.0,77,0.00,,,0.00,0.0,meteohub,2013-05-03 06:01:00,
2013-05-02 23:06:00,54.1,47.1,30.39,ENE,65,0.0,0.0,77,0.00,,,0.00,0.0,meteohub,2013-05-03 06:06:00,
2013-05-02 23:11:00,54.0,47.3,30.39,ENE,65,0.0,2.0,78,0.00,,,0.00,0.0,meteohub,2013-05-03 06:11:00,
2013-05-02 23:16:00,54.0,47.3,30.39,ENE,65,0.0,2.0,78,0.00,,,0.00,0.0,meteohub,2013-05-03 06:16:00,
2013-05-02 23:21:00,53.8,47.1,30.39,ENE,65,0.0,2.0,78,0.00,,,0.00,0.0,meteohub,2013-05-03 06:21:00,
2013-05-02 23:26:00,53.6,47.3,30.39,ENE,65,0.0,0.0,79,0.00,,,0.00,0.0,meteohub,2013-05-03 06:26:00,
2013-05-02 23:31:00,53.4,46.8,30.39,ENE,65,0.0,1.0,78,0.00,,,0.00,0.0,meteohub,2013-05-03 06:31:00,
2013-05-02 23:36:00,53.4,46.8,30.39,ENE,65,0.0,1.0,78,0.00,,,0.00,0.0,meteohub,2013-05-03 06:36:00,
2013-05-02 23:41:00,53.2,46.6,30.39,ENE,65,0.0,1.0,78,0.00,,,0.00,0.0,meteohub,2013-05-03 06:41:00,
2013-05-02 23:46:00,53.2,46.9,30.39,ENE,65,0.0,1.0,79,0.00,,,0.00,0.0,meteohub,2013-05-03 06:46:00,
2013-05-02 23:51:00,53.2,46.2,30.39,ENE,65,0.0,0.0,77,0.00,,,0.00,0.0,meteohub,2013-05-03 06:51:00,
2013-05-02 23:56:00,53.2,46.2,30.39,ENE,65,0.0,0.0,77,0.00,,,0.00,0.0,meteohub,2013-05-03 06:56:00,